Theta_e
360 361 362 364 365 365 364 363 361 360 361 362 362 362 362 361 361 361 359 358 357 356 355 353 351 349 348 349 353 355 357 358
358 360 360 363 364 365 364 362 361 361 361 361 362 362 361 361 360 359 358 358 358 357 354 352 351 350 350 351 354 357 358 360
357 359 358 363 363 363 363 362 361 361 361 361 361 361 360 359 358 358 358 358 357 356 355 352 351 351 352 354 356 358 359 360
358 359 358 356 361 363 362 361 361 361 361 361 360 359 359 358 358 358 358 358 357 356 354 351 349 349 351 353 356 356 357 359
356 358 354 354 354 357 359 361 361 361 360 360 360 358 358 358 358 358 358 358 356 355 352 348 349 352 353 354 358 356 358 358
351 357 354 348 349 351 354 359 360 361 360 360 359 358 355 350 351 353 353 357 356 354 351 350 354 354 355 356 357 358 358 351
346 355 354 350 346 345 348 357 357 356 356 354 353 353 349 349 347 343 353 357 356 354 352 353 354 357 356 352 349 355 353 345
345 354 355 354 350 343 343 353 351 352 352 351 351 351 349 347 349 347 351 347 348 351 345 350 352 353 351 351 350 349 346 343
335 352 357 358 353 350 348 348 345 347 348 348 349 352 348 351 349 347 348 343 342 342 346 352 351 354 351 348 349 348 346 342
346 348 354 360 355 353 353 346 343 342 344 346 349 352 348 352 348 348 349 341 340 345 349 352 354 353 349 349 349 347 345 344
340 354 355 359 355 358 355 349 346 347 343 344 347 351 350 352 351 346 354 347 346 351 350 353 355 353 353 353 350 348 345 345
338 344 356 359 362 359 354 352 349 348 345 344 345 351 350 353 354 353 349 348 354 355 354 357 352 352 353 352 350 347 344 342
341 342 354 354 357 359 356 352 350 349 351 350 349 350 350 350 355 355 350 347 354 355 352 355 348 350 350 350 349 347 343 342
337 339 345 358 356 357 355 355 353 355 353 352 355 348 349 348 351 350 350 352 358 352 354 350 346 350 348 349 348 346 342 341
336 337 342 345 357 359 357 353 353 349 350 349 348 346 348 346 347 348 351 359 356 356 352 350 350 352 348 349 343 340 339 339
335 340 345 342 353 357 356 348 345 345 347 349 348 348 346 345 346 351 356 357 356 354 353 356 353 348 348 346 339 336 335 336
334 339 340 344 345 356 356 353 349 348 347 348 347 347 345 344 348 351 356 354 355 354 354 351 350 345 347 344 337 333 326 330
332 332 336 339 345 353 357 355 351 348 348 346 345 344 344 345 350 351 354 356 355 356 350 351 352 348 341 340 340 335 327 322
324 332 333 340 343 351 356 353 350 342 342 342 345 344 344 346 350 354 355 357 355 355 351 350 352 351 346 334 338 337 334 330
Wind_Speed
20 19 21 17 13 13 15 15 15 14 14 16 14 13 11 10 8 8 7 8 8 9 9 7 5 4 3 3 5 9 13 8
18 19 17 22 15 15 15 14 17 16 15 14 15 14 12 10 9 8 7 7 8 8 7 6 5 2 2 4 6 9 9 7
19 18 15 19 17 15 16 16 15 16 15 14 15 15 14 12 10 8 8 6 7 7 6 6 4 2 1 3 6 9 5 5
20 19 15 15 15 14 16 17 17 17 16 12 12 14 14 12 10 9 8 7 7 6 5 4 3 3 4 5 8 8 7 8
14 18 16 14 14 13 12 16 16 17 18 15 13 13 14 13 11 9 8 8 7 6 5 5 5 7 9 8 10 8 8 9
11 16 17 17 14 14 13 12 15 17 19 16 13 13 12 7 8 11 12 12 9 7 6 7 10 10 8 8 10 12 9 2
6 17 17 18 16 14 13 13 11 12 9 10 11 11 8 8 8 11 10 10 8 7 8 12 12 8 7 6 5 9 3 7
13 1 12 14 17 16 13 11 7 7 7 8 11 10 10 8 7 5 5 5 4 8 6 8 7 6 9 5 5 5 11 9
13 13 6 1 12 11 10 10 9 9 9 8 10 12 8 5 7 5 7 7 7 6 8 6 4 4 4 3 5 6 8 7
3 4 16 10 4 10 9 10 9 9 10 11 10 12 8 5 6 6 5 8 8 7 6 5 5 4 3 2 7 8 7 9
4 6 5 11 7 8 6 11 8 7 9 10 10 11 11 5 5 6 4 3 5 4 4 1 4 4 5 6 5 6 6 4
5 5 7 6 9 10 3 10 8 9 8 7 9 12 11 7 6 5 3 3 3 1 2 5 5 3 5 5 6 4 4 4
3 5 4 7 10 12 10 6 8 9 7 7 7 9 11 8 7 4 4 5 4 3 2 2 3 6 4 4 4 2 3 4
6 4 6 10 11 14 14 8 8 9 7 7 5 8 9 8 7 5 4 5 5 3 3 4 2 5 5 3 3 4 3 4
7 9 8 7 13 13 12 11 10 10 10 9 9 9 10 8 8 6 5 5 5 3 3 3 4 3 4 4 2 4 3 3
7 7 8 9 10 11 10 12 11 9 12 11 11 15 14 11 10 9 4 5 4 3 5 5 4 4 2 2 4 4 3 2
8 8 8 8 11 11 10 10 10 12 11 12 11 13 16 14 10 10 5 7 5 3 6 5 5 3 3 4 1 4 4 2
9 11 11 11 12 12 15 10 11 10 7 6 12 11 14 14 12 11 7 6 8 4 6 6 5 4 3 3 2 1 2 2
11 12 13 12 14 14 14 12 16 12 11 8 10 12 11 13 14 12 8 8 8 5 6 5 5 3 1 4 2 3 4 1
Wind_Direction
137 141 136 133 138 140 141 144 138 143 146 141 144 142 140 142 144 144 149 141 140 138 131 126 107 84 58 4 323 294 288 356
131 126 139 134 141 142 141 145 145 144 146 147 146 141 142 147 150 148 155 154 147 139 137 127 109 95 47 329 303 285 293 20
121 132 140 134 139 144 144 146 147 144 143 154 150 145 147 153 156 157 157 167 154 147 146 134 130 153 351 304 291 282 3 61
132 125 140 140 141 145 146 149 150 143 140 151 150 147 147 151 157 159 167 173 167 152 163 147 169 208 235 236 241 252 77 117
139 132 141 146 159 155 161 152 152 148 145 148 152 154 150 155 161 167 173 183 179 172 184 190 213 226 229 238 254 257 92 111
160 148 145 158 166 167 165 162 151 157 148 150 156 163 153 169 175 169 202 167 185 193 202 218 230 233 235 246 268 270 139 137
135 163 154 164 164 177 160 152 173 171 167 166 171 176 189 187 180 184 160 173 189 201 225 234 235 225 220 223 234 261 178 123
148 223 174 171 159 176 162 153 177 172 177 182 183 179 215 190 175 176 152 179 195 212 226 225 231 217 207 223 212 228 110 120
216 143 78 234 157 192 143 156 174 174 183 187 185 180 216 227 159 187 174 190 196 187 214 211 200 178 84 340 65 36 87 106
95 296 144 195 187 188 149 159 181 183 182 184 185 181 205 204 165 194 196 190 199 195 200 217 152 112 75 181 73 66 52 93
350 198 227 152 197 265 161 165 184 191 184 184 179 177 207 193 167 210 213 218 186 214 173 108 84 114 64 83 69 88 68 70
285 297 191 169 187 232 245 177 185 189 185 185 175 168 200 184 179 226 181 222 201 251 291 116 96 92 98 92 94 82 97 75
213 240 256 203 195 214 235 189 197 182 182 187 172 164 180 186 181 209 204 212 175 160 194 147 143 94 125 109 99 123 63 106
214 245 245 204 210 203 221 236 207 189 193 184 148 155 166 175 174 186 231 199 146 160 186 123 124 122 125 124 161 140 157 125
215 201 212 247 206 206 205 216 224 203 195 190 175 163 168 172 174 206 235 148 137 118 131 147 119 120 126 174 203 97 92 96
212 202 202 219 225 200 202 204 223 217 196 194 183 164 169 176 186 194 189 135 141 177 188 151 120 120 160 154 114 122 178 144
208 199 212 228 234 206 212 208 198 220 225 191 181 172 168 180 179 177 201 154 171 211 129 127 142 139 207 120 209 176 155 187
215 213 202 218 231 231 210 212 203 209 216 231 176 178 171 177 173 170 185 165 175 181 147 154 154 197 169 123 207 344 319 72
245 214 205 212 231 231 206 220 208 200 207 215 220 170 176 179 170 171 173 171 179 181 158 159 147 176 162 152 141 250 85 60